User: anonymous   Login
Location: La Bastide
(43.1661°N, 1.2755°E)
Time: 18:44:21
(UTC+00:00)
Language:

ISS - Orbit

View from above orbital plane
View from above orbital plane
View from above satellite
View from above satellite

Ground track
Ground track

The orbit is defined by the following mean orbital elements,

1 25544U          26065.22200802 +.00000000 +00000-0 +15844-3 0 00003
2 25544  51.6317  89.5003 0008136 162.2758 197.8515 15.48470661    07
Epoch (UTC): 06 March 2026 05:19:41
Eccentricity: 0.0008136
inclination: 51.6317°
perigee height: 416 km
apogee height: 427 km
right ascension of ascending node: 89.5003°
argument of perigee: 162.2758°
revolutions per day: 15.48470661
mean anomaly at epoch: 197.8515°

The dashed part of the orbit path shows where the satellite is in the earth's shadow,  

DLR